Location: Unspecified
(50.0830°N, 0.0000°E)
Time: 19:25:26
(UTC+00:00)

Envisat - Pass Details

Date: 20 November 2019
Orbit: 764 x 766 km, 98.1° (Epoch: 05 December)

Event Time Altitude Azimuth Distance (km) Brightness Sun altitude
Rises 16:40:55 0° 130° (SE) 3,225 6.0 -5.2°
Reaches altitude 10° 16:43:29 10° 119° (ESE) 2,303 5.1 -5.6°
Maximum altitude 16:47:45 28° 62° (ENE) 1,415 3.8 -6.2°
Drops below altitude 10° 16:52:01 10° 5° (N) 2,315 5.2 -6.8°
Sets 16:54:36 0° 354° (N) 3,245 6.1 -7.2°
